Location: Champs
(48.8539°N, 2.6040°E)
Time: 12:03:22
(UTC+00:00)

Cosmos 1538 Rocket - Pass Details

Date: 02 June 2022
Orbit: 752 x 791 km, 74.0° (Epoch: 28 June)

Event Time Altitude Azimuth Distance (km) Brightness Sun altitude
Rises 20:25:33 0° 335° (NNW) 3,245 8.8 -5.8°
Reaches altitude 10° 20:27:57 10° 334° (NNW) 2,309 7.9 -6.1°
Maximum altitude 20:33:09 73° 250° (WSW) 796 4.2 -6.7°
Drops below altitude 10° 20:38:17 10° 167° (SSE) 2,274 5.9 -7.3°
Enters shadow 20:39:20 - 166° (SSE) 2,682 6.3 -7.4°
